STARLINK-36773

Last updated on Sun Mar 15 2026 00:02:06 GMT+0000 (Coordinated Universal Time)

1 67801U 26032E 26073.51667959 .00203645 00000+0 13314-2 0 9994 2 67801 97.2842 260.2481 0001281 52.5745 307.5637 15.75233448 5546
UTC large
Height (km)
Speed (km/s)
/
Latitude / Longitude
Inclination (degrees)
Orbital Period (minutes)
Azimuth
Elevation
Range (km)
Doppler Factor

Next 0 passes for location: London (51.5072 / 0.1276)

Sorry there are no passes over London.